• In Belgien
  • Länderverzeichnis
  • Für 7 Tage
  • Wassertemperatur
  • Satellitenkarten
  • Wetterkarte
  • Widgets
  • user-avatar
    Anmelden

    Stündliche Wetter Banning

    Heute, 19 Oktober, Freitag

    Zeit Temperatur Niederschläge Wind Luftdruck Luftfeuchtigkeit
    00:00 +18°C° 0 mm 2 m/S 701 mmHg 30%
    01:00 +17°C° 0 mm 2 m/S 701 mmHg 30%
    02:00 +17°C° 0 mm 3 m/S 701 mmHg 30%
    03:00 +17°C° 0 mm 3 m/S 701 mmHg 30%
    04:00 +18°C° 0 mm 7 m/S 701 mmHg 28%
    05:00 +19°C° 0 mm 5 m/S 701 mmHg 29%
    06:00 +19°C° 0 mm 4 m/S 701 mmHg 30%
    07:00 +18°C° 0 mm 3 m/S 702 mmHg 31%
    08:00 +20°C° 0 mm 4 m/S 702 mmHg 28%
    09:00 +22°C° 0 mm 4 m/S 702 mmHg 24%
    10:00 +25°C° 0 mm 4 m/S 703 mmHg 20%
    11:00 +26°C° 0 mm 4 m/S 702 mmHg 19%
    12:00 +26°C° 0 mm 4 m/S 702 mmHg 18%
    13:00 +27°C° 0 mm 4 m/S 702 mmHg 17%
    14:00 +27°C° 0 mm 4 m/S 701 mmHg 17%
    15:00 +26°C° 0 mm 4 m/S 701 mmHg 17%
    16:00 +26°C° 0 mm 4 m/S 701 mmHg 18%
    17:00 +23°C° 0 mm 4 m/S 700 mmHg 20%
    18:00 +21°C° 0 mm 3 m/S 700 mmHg 23%
    19:00 +20°C° 0 mm 2 m/S 700 mmHg 25%
    20:00 +19°C° 0 mm 3 m/S 700 mmHg 26%
    21:00 +19°C° 0 mm 3 m/S 700 mmHg 26%
    22:00 +19°C° 0 mm 3 m/S 700 mmHg 26%
    23:00 +18°C° 0 mm 3 m/S 700 mmHg 26%

    Morgen, 20 Oktober, Samstag

    Zeit Temperatur Niederschläge Wind Luftdruck Luftfeuchtigkeit
    00:00 +18°C° 0 mm 3 m/S 700 mmHg 26%
    01:00 +18°C° 0 mm 3 m/S 700 mmHg 27%
    02:00 +18°C° 0 mm 3 m/S 700 mmHg 27%
    03:00 +18°C° 0 mm 3 m/S 700 mmHg 27%
    04:00 +17°C° 0 mm 3 m/S 699 mmHg 28%
    05:00 +18°C° 0 mm 3 m/S 700 mmHg 28%
    06:00 +18°C° 0 mm 3 m/S 700 mmHg 28%
    07:00 +19°C° 0 mm 3 m/S 700 mmHg 28%
    08:00 +21°C° 0 mm 3 m/S 701 mmHg 26%
    09:00 +24°C° 0 mm 3 m/S 701 mmHg 24%
    10:00 +26°C° 0 mm 3 m/S 701 mmHg 21%
    11:00 +26°C° 0 mm 3 m/S 701 mmHg 22%
    12:00 +27°C° 0 mm 3 m/S 700 mmHg 23%
    13:00 +27°C° 0 mm 3 m/S 700 mmHg 23%
    14:00 +27°C° 0 mm 3 m/S 700 mmHg 25%
    15:00 +26°C° 0 mm 3 m/S 699 mmHg 26%
    16:00 +26°C° 0 mm 3 m/S 699 mmHg 28%
    17:00 +24°C° 0 mm 2 m/S 699 mmHg 33%
    18:00 +23°C° 0 mm 2 m/S 699 mmHg 37%
    19:00 +20°C° 0 mm 2 m/S 699 mmHg 41%
    20:00 +20°C° 0 mm 2 m/S 699 mmHg 43%
    21:00 +20°C° 0 mm 1 m/S 699 mmHg 45%
    22:00 +20°C° 0 mm 1 m/S 699 mmHg 46%
    23:00 +20°C° 0 mm 1 m/S 699 mmHg 48%

    übermorgen, 21 Oktober, Sonntag

    Zeit Temperatur Niederschläge Wind Luftdruck Luftfeuchtigkeit
    00:00 +18°C° 0 mm 2 m/S 698 mmHg 50%
    01:00 +18°C° 0 mm 2 m/S 698 mmHg 52%
    02:00 +18°C° 0 mm 2 m/S 698 mmHg 53%
    03:00 +17°C° 0 mm 2 m/S 698 mmHg 54%
    04:00 +18°C° 0 mm 1 m/S 698 mmHg 56%
    05:00 +19°C° 0 mm 1 m/S 698 mmHg 53%
    06:00 +19°C° 0 mm 1 m/S 699 mmHg 51%
    07:00 +20°C° 0 mm 1 m/S 699 mmHg 48%
    08:00 +22°C° 0 mm 1 m/S 699 mmHg 43%
    09:00 +23°C° 0 mm 1 m/S 700 mmHg 38%
    10:00 +25°C° 0 mm 1 m/S 700 mmHg 32%
    11:00 +25°C° 0 mm 1 m/S 700 mmHg 31%
    12:00 +26°C° 0 mm 2 m/S 699 mmHg 29%
    13:00 +26°C° 0 mm 2 m/S 699 mmHg 27%
    14:00 +26°C° 0 mm 2 m/S 698 mmHg 27%
    15:00 +26°C° 0 mm 2 m/S 698 mmHg 27%
    16:00 +25°C° 0 mm 2 m/S 698 mmHg 27%
    17:00 +23°C° 0 mm 1 m/S 698 mmHg 31%
    18:00 +22°C° 0 mm 1 m/S 698 mmHg 35%
    19:00 +20°C° 0 mm 1 m/S 698 mmHg 39%
    20:00 +20°C° 0 mm 1 m/S 698 mmHg 40%
    21:00 +19°C° 0 mm 1 m/S 698 mmHg 41%
    22:00 +19°C° 0 mm 1 m/S 698 mmHg 42%
    23:00 +18°C° 0 mm 1 m/S 697 mmHg 43%

    22 Oktober, Montag

    Zeit Temperatur Niederschläge Wind Luftdruck Luftfeuchtigkeit
    00:00 +18°C° 0 mm 1 m/S 697 mmHg 44%
    01:00 +18°C° 0 mm 1 m/S 697 mmHg 45%
    02:00 +16°C° 0 mm 1 m/S 697 mmHg 47%
    03:00 +16°C° 0 mm 1 m/S 697 mmHg 50%
    04:00 +16°C° 0 mm 1 m/S 697 mmHg 53%
    05:00 +18°C° 0 mm 1 m/S 697 mmHg 51%
    06:00 +19°C° 0 mm 1 m/S 697 mmHg 50%
    07:00 +19°C° 0 mm 1 m/S 698 mmHg 48%
    08:00 +21°C° 0 mm 1 m/S 698 mmHg 43%
    09:00 +23°C° 0 mm 1 m/S 699 mmHg 39%
    10:00 +24°C° 0 mm 1 m/S 699 mmHg 34%
    11:00 +25°C° 0 mm 1 m/S 699 mmHg 32%
    12:00 +25°C° 0 mm 1 m/S 698 mmHg 30%
    13:00 +26°C° 0 mm 2 m/S 698 mmHg 28%
    14:00 +26°C° 0 mm 2 m/S 698 mmHg 29%
    15:00 +25°C° 0 mm 2 m/S 697 mmHg 29%
    16:00 +25°C° 0 mm 2 m/S 697 mmHg 29%
    17:00 +23°C° 0 mm 1 m/S 697 mmHg 32%
    18:00 +21°C° 0 mm 1 m/S 697 mmHg 36%
    19:00 +20°C° 0 mm 1 m/S 697 mmHg 40%
    20:00 +19°C° 0 mm 1 m/S 697 mmHg 41%
    21:00 +19°C° 0 mm 1 m/S 697 mmHg 42%
    22:00 +18°C° 0 mm 1 m/S 698 mmHg 43%
    23:00 +18°C° 0 mm 1 m/S 697 mmHg 43%

    23 Oktober, Dienstag

    Zeit Temperatur Niederschläge Wind Luftdruck Luftfeuchtigkeit
    00:00 +18°C° 0 mm 1 m/S 697 mmHg 43%
    01:00 +16°C° 0 mm 1 m/S 697 mmHg 44%
    02:00 +16°C° 0 mm 1 m/S 697 mmHg 44%
    03:00 +16°C° 0 mm 1 m/S 697 mmHg 45%
    04:00 +15°C° 0 mm 1 m/S 697 mmHg 45%
    05:00 +16°C° 0 mm 1 m/S 698 mmHg 44%
    06:00 +18°C° 0 mm 1 m/S 698 mmHg 43%
    07:00 +19°C° 0 mm 1 m/S 698 mmHg 42%
    08:00 +21°C° 0 mm 1 m/S 699 mmHg 37%
    09:00 +23°C° 0 mm 1 m/S 699 mmHg 32%
    10:00 +24°C° 0 mm 1 m/S 700 mmHg 27%
    11:00 +25°C° 0 mm 1 m/S 699 mmHg 26%
    12:00 +26°C° 0 mm 2 m/S 699 mmHg 26%
    13:00 +26°C° 0 mm 2 m/S 699 mmHg 25%
    14:00 +26°C° 0 mm 2 m/S 699 mmHg 26%
    15:00 +25°C° 0 mm 2 m/S 699 mmHg 27%
    16:00 +25°C° 0 mm 2 m/S 698 mmHg 27%
    17:00 +23°C° 0 mm 1 m/S 698 mmHg 32%
    18:00 +21°C° 0 mm 1 m/S 698 mmHg 37%
    19:00 +20°C° 0 mm 1 m/S 698 mmHg 42%
    20:00 +19°C° 0 mm 1 m/S 698 mmHg 44%
    21:00 +19°C° 0 mm 1 m/S 699 mmHg 46%
    22:00 +16°C° 0 mm 0 m/S 699 mmHg 48%
    23:00 +18°C° 0 mm 1 m/S 698 mmHg 48%

    24 Oktober, Mittwoch

    Zeit Temperatur Niederschläge Wind Luftdruck Luftfeuchtigkeit
    00:00 +18°C° 0 mm 1 m/S 698 mmHg 48%
    01:00 +16°C° 0 mm 1 m/S 698 mmHg 47%
    02:00 +16°C° 0 mm 1 m/S 698 mmHg 46%
    03:00 +16°C° 0 mm 1 m/S 698 mmHg 45%
    04:00 +16°C° 0 mm 1 m/S 698 mmHg 44%
    05:00 +18°C° 0 mm 1 m/S 699 mmHg 42%
    06:00 +18°C° 0 mm 1 m/S 699 mmHg 40%
    07:00 +19°C° 0 mm 1 m/S 699 mmHg 38%
    08:00 +21°C° 0 mm 1 m/S 700 mmHg 34%
    09:00 +23°C° 0 mm 1 m/S 700 mmHg 29%
    10:00 +25°C° 0 mm 1 m/S 701 mmHg 25%
    11:00 +25°C° 0 mm 1 m/S 701 mmHg 24%
    12:00 +26°C° 0 mm 1 m/S 700 mmHg 24%
    13:00 +26°C° 0 mm 2 m/S 700 mmHg 23%
    14:00 +26°C° 0 mm 2 m/S 700 mmHg 24%
    15:00 +26°C° 0 mm 2 m/S 699 mmHg 24%
    16:00 +26°C° 0 mm 2 m/S 699 mmHg 25%
    17:00 +24°C° 0 mm 1 m/S 699 mmHg 29%
    18:00 +22°C° 0 mm 1 m/S 699 mmHg 33%
    19:00 +18°C° 0 mm 0 m/S 699 mmHg 38%
    20:00 +19°C° 0 mm 1 m/S 699 mmHg 38%
    21:00 +19°C° 0 mm 1 m/S 699 mmHg 39%
    22:00 +19°C° 0 mm 1 m/S 699 mmHg 40%
    23:00 +19°C° 0 mm 1 m/S 699 mmHg 40%
    Mehr zeigen